Time,TemperatureF,DewpointF,PressureIn,WindDirection,WindDirectionDegrees,WindSpeedMPH,WindSpeedGustMPH,Humidity,HourlyPrecipIn,Conditions,Clouds,dailyrainin,SolarRadiationWatts/m^2,SoftwareType,DateUTC
2013-05-16 00:12:00,57.0,38.0,-100.00,NW,321,1.0,2.0,49,-99.99,,,0.00,0.000000,,2013-05-16 07:12:00,
2013-05-16 01:13:00,56.0,39.0,-100.00,NW,316,0.0,1.0,52,-99.99,,,0.00,0.000000,,2013-05-16 08:13:00,
2013-05-16 02:14:00,55.0,40.0,-100.00,North,351,0.0,1.0,56,-99.99,,,0.00,0.000000,,2013-05-16 09:14:00,
2013-05-16 02:15:00,54.0,40.0,-100.00,NW,326,0.0,2.0,58,-99.99,,,0.00,0.000000,,2013-05-16 09:15:00,
2013-05-16 04:14:00,52.0,41.0,-100.00,NNE,24,1.0,2.0,65,-99.99,,,0.00,0.000000,,2013-05-16 11:14:00,
2013-05-16 05:13:00,52.0,42.0,-100.00,South,176,1.0,2.0,67,-99.99,,,0.00,0.000000,,2013-05-16 12:13:00,
2013-05-16 06:12:00,52.0,43.0,-100.00,South,173,0.0,2.0,70,-99.99,,,0.00,0.580000,,2013-05-16 13:12:00,
2013-05-16 06:15:00,53.0,44.0,-100.00,SW,233,0.0,1.0,71,-99.99,,,0.00,31.030001,,2013-05-16 13:15:00,
2013-05-16 07:15:00,57.0,44.0,-100.00,SE,133,0.0,1.0,62,-99.99,,,0.00,137.949997,,2013-05-16 14:15:00,
2013-05-16 08:15:00,59.0,45.0,-100.00,ENE,62,1.0,4.0,60,-99.99,,,0.00,273.230011,,2013-05-16 15:15:00,
2013-05-16 09:15:00,59.0,45.0,-100.00,NE,47,3.0,6.0,59,-99.99,,,-99.99,200.250000,,2013-05-16 16:15:00,
2013-05-16 11:15:00,66.0,44.0,-100.00,SSE,152,5.0,9.0,45,-99.99,,,0.00,939.059998,,2013-05-16 18:15:00,
2013-05-16 12:15:00,67.0,-99.9,-100.00,SSE,148,3.0,9.0,39,-99.99,,,0.00,951.840027,,2013-05-16 19:15:00,
2013-05-16 13:15:00,69.0,-99.9,-100.00,SSE,155,4.0,11.0,37,-99.99,,,0.00,1035.520020,,2013-05-16 20:15:00,
2013-05-16 14:15:00,69.0,41.0,-100.00,SSW,204,5.0,14.0,35,-99.99,,,-99.99,991.359985,,2013-05-16 21:15:00,
2013-05-16 15:15:00,68.0,41.0,-100.00,South,175,3.0,9.0,36,-99.99,,,0.00,474.989990,,2013-05-16 22:15:00,
2013-05-16 17:13:00,69.0,42.0,-100.00,North,356,5.0,11.0,37,-99.99,,,0.00,582.260010,,2013-05-17 00:13:00,
2013-05-16 18:12:00,66.0,45.0,-100.00,SE,132,4.0,10.0,46,-99.99,,,0.00,124.699997,,2013-05-17 01:12:00,
2013-05-16 19:11:00,67.0,44.0,-100.00,SW,231,2.0,4.0,44,-99.99,,,0.00,300.660004,,2013-05-17 02:11:00,
2013-05-16 20:11:00,64.0,43.0,-100.00,NNW,346,1.0,4.0,46,-99.99,,,0.00,45.790001,,2013-05-17 03:11:00,
2013-05-16 21:13:00,61.0,44.0,-100.00,NNE,13,3.0,5.0,52,-99.99,,,0.00,13.710000,,2013-05-17 04:13:00,
2013-05-16 22:14:00,59.0,44.0,-100.00,NNW,333,0.0,2.0,57,-99.99,,,0.00,0.000000,,2013-05-17 05:14:00,
2013-05-16 23:11:00,55.0,45.0,-100.00,West,281,1.0,3.0,68,-99.99,,,0.00,0.000000,,2013-05-17 06:11:00,